| time (UTC) | temp F | wind direction | speed MPH | gust MPH | rain 1hr in | rain 24hr in | rain mn in | humidity % | barometer mb |
| 20260505074356 | 60 | 137 | 2.0 | 7.0 | 0.00 | 0.00 | 0.00 | 73 | 999.0 |
| 20260505073355 | 60 | 219 | 2.0 | 11.0 | 0.00 | 0.00 | 0.00 | 73 | 998.7 |
| 20260505072357 | 60 | 241 | 2.0 | 9.0 | 0.00 | 0.00 | 0.00 | 74 | 998.5 |
| 20260505071354 | 60 | 201 | 0.0 | 4.0 | 0.00 | 0.00 | 0.00 | 76 | 998.5 |
| 20260505070354 | 60 | 286 | 0.0 | 9.0 | 0.00 | 0.00 | 0.00 | 77 | 998.7 |
| 20260505065352 | 60 | 255 | 2.0 | 7.0 | 0.00 | 0.00 | 0.00 | 75 | 999.0 |
| 20260505064355 | 60 | 138 | 2.0 | 12.0 | 0.00 | 0.00 | 0.00 | 75 | 998.5 |
| 20260505063352 | 60 | 202 | 2.0 | 9.0 | 0.00 | 0.00 | 0.00 | 74 | 998.8 |
| 20260505062353 | 60 | 276 | 4.0 | 14.0 | 0.00 | 0.00 | 0.00 | 74 | 999.2 |
| 20260505061353 | 61 | 237 | 4.0 | 11.0 | 0.00 | 0.00 | 0.00 | 74 | 999.3 |
| 20260505060353 | 61 | 213 | 4.0 | 12.0 | 0.00 | 0.00 | 0.00 | 73 | 999.4 |
| 20260505055355 | 62 | 162 | 4.0 | 11.0 | 0.00 | 0.00 | 0.00 | 71 | 999.0 |
| 20260505054352 | 62 | 157 | 2.0 | 11.0 | 0.00 | 0.00 | 0.00 | 70 | 999.2 |
| 20260505053358 | 63 | 178 | 4.0 | 11.0 | 0.00 | 0.00 | 0.00 | 69 | 999.1 |
| 20260505052357 | 64 | 259 | 4.0 | 16.0 | 0.00 | 0.00 | 0.00 | 68 | 999.1 |
| 20260505051354 | 64 | 234 | 4.0 | 12.0 | 0.00 | 0.00 | 0.00 | 68 | 998.7 |
| 20260505050356 | 65 | 194 | 5.0 | 29.0 | 0.00 | 0.00 | 0.00 | 70 | 999.2 |
| 20260505041354 | 64 | 194 | 5.0 | 11.0 | 0.00 | 0.00 | 0.00 | 71 | 998.6 |
| 20260505040354 | 64 | 190 | 5.0 | 14.0 | 0.00 | 0.00 | 0.00 | 71 | 998.6 |
| 20260505035354 | 64 | 153 | 4.0 | 11.0 | 0.00 | 0.00 | 0.00 | 72 | 998.7 |
| 20260505034353 | 63 | 234 | 4.0 | 12.0 | 0.00 | 0.00 | 0.00 | 73 | 998.7 |
| 20260505033354 | 63 | 163 | 5.0 | 12.0 | 0.00 | 0.00 | 0.00 | 73 | 998.6 |
| 20260505032349 | 63 | 229 | 4.0 | 11.0 | 0.00 | 0.00 | 0.00 | 74 | 998.7 |
| 20260505031349 | 63 | 171 | 4.0 | 9.0 | 0.00 | 0.00 | 0.00 | 75 | 998.8 |
| 20260505030350 | 62 | 175 | 4.0 | 11.0 | 0.00 | 0.00 | 0.00 | 75 | 999.0 |
| 20260505025350 | 63 | 169 | 4.0 | 11.0 | 0.00 | 0.00 | 0.00 | 75 | 999.2 |
| 20260505024351 | 63 | 185 | 4.0 | 14.0 | 0.00 | 0.00 | 0.00 | 75 | 999.2 |
| 20260505023351 | 63 | 234 | 4.0 | 14.0 | 0.00 | 0.00 | 0.00 | 75 | 999.1 |
| 20260505022350 | 62 | 179 | 4.0 | 12.0 | 0.00 | 0.00 | 0.00 | 76 | 999.2 |
| 20260505021351 | 62 | 168 | 2.0 | 7.0 | 0.00 | 0.00 | 0.00 | 77 | 999.1 |
| 20260505020355 | 62 | 155 | 4.0 | 11.0 | 0.00 | 0.00 | 0.00 | 77 | 999.1 |
| 20260505015350 | 62 | 163 | 4.0 | 11.0 | 0.00 | 0.00 | 0.00 | 76 | 999.1 |
| 20260505014349 | 62 | 172 | 4.0 | 11.0 | 0.00 | 0.00 | 0.00 | 76 | 999.2 |
| 20260505013351 | 62 | 176 | 4.0 | 12.0 | 0.00 | 0.00 | 0.00 | 77 | 999.0 |
| 20260505012349 | 61 | 156 | 4.0 | 9.0 | 0.00 | 0.00 | 0.00 | 78 | 998.8 |
| 20260505011349 | 62 | 153 | 4.0 | 11.0 | 0.00 | 0.00 | 0.00 | 77 | 998.6 |
| 20260505010350 | 62 | 185 | 4.0 | 11.0 | 0.00 | 0.00 | 0.00 | 75 | 998.6 |
| 20260505005354 | 63 | 194 | 5.0 | 16.0 | 0.00 | 0.00 | 0.00 | 73 | 998.6 |
| 20260505004354 | 65 | 237 | 7.0 | 18.0 | 0.00 | 0.00 | 0.00 | 68 | 998.6 |
| 20260505003349 | 66 | 165 | 7.0 | 23.0 | 0.00 | 0.00 | 0.00 | 63 | 998.3 |
| 20260505002349 | 68 | 194 | 7.0 | 22.0 | 0.00 | 0.00 | 0.00 | 59 | 998.3 |
| 20260505001349 | 70 | 247 | 4.0 | 23.0 | 0.00 | 0.00 | 0.00 | 55 | 998.4 |
| 20260505000351 | 71 | 168 | 4.0 | 11.0 | 0.00 | 0.00 | 0.00 | 53 | 997.9 |
| 20260504235348 | 72 | 189 | 2.0 | 11.0 | 0.00 | 0.00 | 0.00 | 51 | 997.9 |
| 20260504234351 | 73 | 196 | 2.0 | 11.0 | 0.00 | 0.00 | 0.00 | 47 | 997.9 |
| 20260504233351 | 73 | 227 | 4.0 | 9.0 | 0.00 | 0.00 | 0.00 | 46 | 998.0 |
| 20260504232352 | 73 | 154 | 4.0 | 11.0 | 0.00 | 0.00 | 0.00 | 46 | 998.1 |
| 20260504231345 | 73 | 238 | 5.0 | 16.0 | 0.00 | 0.00 | 0.00 | 46 | 998.0 |
| 20260504230346 | 73 | 175 | 5.0 | 18.0 | 0.00 | 0.00 | 0.00 | 44 | 998.0 |
| 20260504225342 | 74 | 225 | 5.0 | 16.0 | 0.00 | 0.00 | 0.00 | 44 | 998.0 |
| 20260504224343 | 74 | 252 | 4.0 | 12.0 | 0.00 | 0.00 | 0.00 | 42 | 998.1 |
| 20260504223347 | 74 | 312 | 4.0 | 12.0 | 0.00 | 0.00 | 0.00 | 41 | 998.4 |
| 20260504222347 | 74 | 273 | 5.0 | 14.0 | 0.00 | 0.00 | 0.00 | 41 | 998.5 |
| 20260504221344 | 74 | 213 | 4.0 | 9.0 | 0.00 | 0.00 | 0.00 | 39 | 998.6 |
| 20260504220343 | 74 | 242 | 7.0 | 18.0 | 0.00 | 0.00 | 0.00 | 40 | 999.0 |
| 20260504215355 | 74 | 247 | 7.0 | 20.0 | 0.00 | 0.00 | 0.00 | 39 | 998.8 |
| 20260504214350 | 74 | 244 | 7.0 | 22.0 | 0.00 | 0.00 | 0.00 | 38 | 998.7 |
| 20260504213350 | 74 | 264 | 7.0 | 23.0 | 0.00 | 0.00 | 0.00 | 38 | 998.8 |
| 20260504212349 | 74 | 142 | 7.0 | 29.0 | 0.00 | 0.00 | 0.00 | 37 | 999.0 |
| 20260504211344 | 74 | 178 | 7.0 | 22.0 | 0.00 | 0.00 | 0.00 | 36 | 999.1 |
| 20260504210402 | 75 | 148 | 5.0 | 16.0 | 0.00 | 0.00 | 0.00 | 36 | 999.1 |
| 20260504205341 | 74 | 244 | 5.0 | 18.0 | 0.00 | 0.00 | 0.00 | 34 | 999.1 |
| 20260504204340 | 74 | 217 | 7.0 | 23.0 | 0.00 | 0.00 | 0.00 | 33 | 999.2 |
| 20260504203339 | 75 | 150 | 5.0 | 23.0 | 0.00 | 0.00 | 0.00 | 32 | 999.3 |
| 20260504202340 | 75 | 243 | 5.0 | 22.0 | 0.00 | 0.00 | 0.00 | 31 | 999.2 |
| 20260504201340 | 74 | 193 | 5.0 | 18.0 | 0.00 | 0.00 | 0.00 | 31 | 999.3 |
| 20260504200339 | 75 | 259 | 4.0 | 18.0 | 0.00 | 0.00 | 0.00 | 30 | 999.3 |
| 20260504195338 | 75 | 48 | 7.0 | 20.0 | 0.00 | 0.00 | 0.00 | 31 | 999.5 |
| 20260504194341 | 75 | 174 | 5.0 | 12.0 | 0.00 | 0.00 | 0.00 | 30 | 999.5 |
| 20260504193334 | 75 | 262 | 7.0 | 25.0 | 0.00 | 0.00 | 0.00 | 27 | 999.5 |
| 20260504192335 | 75 | 271 | 5.0 | 22.0 | 0.00 | 0.00 | 0.00 | 27 | 999.7 |
| 20260504191336 | 75 | 330 | 4.0 | 9.0 | 0.00 | 0.00 | 0.00 | 27 | 999.7 |
| 20260504190332 | 75 | 248 | 5.0 | 22.0 | 0.00 | 0.00 | 0.00 | 27 | 999.9 |
| 20260504185332 | 75 | 148 | 5.0 | 23.0 | 0.00 | 0.00 | 0.00 | 28 | 999.9 |
| 20260504184333 | 75 | 230 | 4.0 | 16.0 | 0.00 | 0.00 | 0.00 | 29 | 1000.1 |
| 20260504183332 | 75 | 253 | 5.0 | 18.0 | 0.00 | 0.00 | 0.00 | 30 | 1000.2 |
| 20260504182331 | 74 | 235 | 7.0 | 18.0 | 0.00 | 0.00 | 0.00 | 33 | 1000.1 |
| 20260504181330 | 74 | 257 | 7.0 | 22.0 | 0.00 | 0.00 | 0.00 | 33 | 1000.2 |
| 20260504180331 | 74 | 205 | 5.0 | 18.0 | 0.00 | 0.00 | 0.00 | 33 | 1000.5 |
| 20260504175332 | 73 | 269 | 5.0 | 20.0 | 0.00 | 0.00 | 0.00 | 34 | 1000.4 |
| 20260504174329 | 73 | 155 | 7.0 | 22.0 | 0.00 | 0.00 | 0.00 | 36 | 1000.7 |
| 20260504173332 | 73 | 190 | 5.0 | 18.0 | 0.00 | 0.00 | 0.00 | 37 | 1000.9 |
| 20260504172333 | 73 | 152 | 5.0 | 20.0 | 0.00 | 0.00 | 0.00 | 37 | 1000.9 |
| 20260504171332 | 72 | 254 | 5.0 | 16.0 | 0.00 | 0.00 | 0.00 | 36 | 1001.2 |
| 20260504170335 | 72 | 321 | 4.0 | 16.0 | 0.00 | 0.00 | 0.00 | 36 | 1001.3 |
| 20260504160339 | 68 | 170 | 4.0 | 12.0 | 0.00 | 0.00 | 0.00 | 48 | 1002.3 |
| 20260504150332 | 63 | 196 | 4.0 | 16.0 | 0.00 | 0.00 | 0.00 | 57 | 1002.8 |
| 20260504141332 | 60 | 252 | 4.0 | 9.0 | 0.00 | 0.00 | 0.00 | 63 | 1003.0 |
| 20260504140328 | 59 | 212 | 4.0 | 11.0 | 0.00 | 0.00 | 0.00 | 64 | 1003.1 |
| 20260504130324 | 55 | 240 | 4.0 | 14.0 | 0.00 | 0.00 | 0.00 | 71 | 1003.6 |
| 20260504120317 | 51 | 207 | 4.0 | 11.0 | 0.00 | 0.00 | 0.00 | 76 | 1003.7 |
| 20260504110313 | 48 | 166 | 2.0 | 5.0 | 0.00 | 0.00 | 0.00 | 80 | 1003.6 |
| 20260504100313 | 48 | 182 | 2.0 | 4.0 | 0.00 | 0.00 | 0.00 | 78 | 1003.6 |
| 20260504081308 | 49 | 182 | 2.0 | 14.0 | 0.00 | 0.00 | 0.00 | 74 | 1004.3 |
| 20260504080308 | 49 | 167 | 2.0 | 11.0 | 0.00 | 0.00 | 0.00 | 74 | 1004.3 |